クリステンセン彗星

164P/Christensen (2011)

English version
Home page
Updated on February 1, 2012

---------------------------------------------------------------------

・ プロフィール

・ 写真集

・ 軌道要素

Epoch 2011 June 8.0 TT = JDT 2455720.5
T 2011 June 2.34872 TT                                  MPC
q   1.6753299            (2000.0)            P               Q
n   0.14115448     Peri.  325.84952     +0.56283699     -0.77773771
a   3.6531957      Node    88.32745     +0.80704802     +0.44392532
e   0.5414070      Incl.   16.26078     +0.17857215     +0.44503299
P   6.98
From 462 observations 1998 Jan. 24-2012 Jan. 11, mean residual 0".7.
     Nongravitational parameters A1 = -0.04, A2 = +0.0096.

・ 星図

・ 光度変化

        m1 = 13.0 + 5 logΔ + 10.0 log r(t - 150)

        ※ 灰色の曲線は、m1 = 11.5 + 5 logΔ + 10.0 log r の光度曲線です。

---------------------------------------------------------------------

軌道要素はM.P.E.C. 2012-A52に掲載されたものです。
星図はステラナビゲータ Ver.8 (アストロアーツ) で作成したものです。
光度グラフはComet for Windowsで作成したものです。

---------------------------------------------------------------------

Copyright(C) Seiichi Yoshida (comet@aerith.net). All rights reserved.